Regional Weather Roundup
Issued by NWS

Home | Current Version | Previous Version | Graphics & Text | Print | Product List | Glossary On
Versions: 1 2 3 4 5 6 7 8 9 10 11 12 13 14 15 16 17 18 19 20 21 22 23 24 25 26 27 28 29 30 31 32 33 34 35 36 37 38 39 40 41 42 43 44 45 46 47 48 49 50
000
ASUS43 KBIS 161102
RWRND

NORTH DAKOTA REGIONAL WEATHER ROUNDUP
NATIONAL WEATHER SERVICE BISMARCK ND
600 AM CDT MON OCT 16 2017

NOTE: "FAIR" INDICATES FEW OR NO CLOUDS BELOW 12,000 FEET WITH NO
SIGNIFICANT WEATHER AND/OR OBSTRUCTIONS TO VISIBILITY.


NDZ001>003-009>011-017-161200-
NORTHWEST NORTH DAKOTA

CITY           SKY/WX    TMP DP  RH WIND       PRES   REMARKS
WILLISTON      CLEAR     38  32  79 SW9       29.96S
MINOT          CLEAR     46  31  55 S16G24    29.92F
MINOT AFB      CLEAR     44  31  61 SW10      29.90F
$$

NDZ018>021-031>035-040>046-161200-
SOUTHWEST NORTH DAKOTA

CITY           SKY/WX    TMP DP  RH WIND       PRES   REMARKS
BISMARCK       CLEAR     31  27  85 E6        30.06F
DICKINSON      CLEAR     40  28  62 SW13      30.00F
GARRISON         N/A     39  31  72 S12       29.98F
HETTINGER ARPT CLEAR     38  26  62 CALM      30.09F
$$

NDZ004>008-012>016-024-026-027-054-161200-
NORTHEAST NORTH DAKOTA

CITY           SKY/WX    TMP DP  RH WIND       PRES   REMARKS
GRAND FORKS    CLEAR     32  29  88 S8        30.06F
GRND FRKS AFB  CLEAR     35  29  79 SW8       30.05F
DEVILS LAKE    CLEAR     44  34  67 SW14      30.01F
$$

NDZ022-023-025-028>030-036>039-047>053-161200-
SOUTHEAST NORTH DAKOTA

CITY           SKY/WX    TMP DP  RH WIND       PRES   REMARKS
FARGO          CLEAR     33  30  88 S8        30.14S
JAMESTOWN      CLEAR     35  29  78 S10       30.08F
$$





USA.gov is the U.S. government's official web portal to all federal, state and local government web resources and services.